COSMOS 416

Satellite information

Favourite Embed

Satellite Type and Status

PAYLOADIN ORBIT

Key statistics

Satellite COSMOS 416 at a glance.

Uptime

19845

Days in orbit

Revolutions

≈ 12.6

Per day

Orbit

LEO

Low Earth Orbit

Inclination

74.0

Latest

Satellite identification and parameters

Extended collection of information and parameters for COSMOS 416.

Object identification

Identified? True

Debris? False

Object name: COSMOS 416

International designator: 1971-041F

Object number (NORAD): 5215

Object ID (CCSDS): 5215

Country: COMMONWEALTH OF INDEPENDENT STATES (CIS)

Current information (Y/N): Y

RCS size: MEDIUM

Orbital parameters

Period: 114.462 minutes

Inclination: 74.0156 deg

SMA: 7809.079 km

Apoapsis: 1490.727 km

Periapsis: 1371.161 km

RAAN: 301.7326 deg

Eccentricy: 0.00765561

Argument of periapsis: 109.3837 deg

Mean anomaly: 307.5365 deg

Mean motion: 12.58064863 rev/day

Mean motion (dot): -0.00000003 rev/day2

B* drag term: 0.000076917177 1/REarth

Two-line elements (TLE)

Creation date: Sept. 4, 2025, 10:13 a.m.

Reference frame: TEME

Reference center: EARTH

Epoch: Sept. 4, 2025, 4:49 a.m. UTC

TLE line 0: 0 COSMOS 416

TLE line 1: 1 05215U 71041F 25247.20126638 -.00000003 00000-0 76917-4 0 9992

TLE line 2: 2 05215 74.0156 301.7326 0076556 109.3837 307.5365 12.58064863494829

Live tracking on map

Real-time ground track for satellite COSMOS 416.

In-orbit conjunctions

There are no conjunctions computed for COSMOS 416, at the moment. Check back to stay up to date, as we update our databases every day.

Go to all conjunctions

Associated space launch

Military communications satellites

COSMOS 416 was lifted into orbit during the mission ‘Kosmos-3M | Strela-1M 9-16’, on board a Kosmos-3M space rocket.

The launch took place on May 7, 1971, 2:20 p.m. from 132/1 (132L).

For more information about the launch, click the button.

Launch to space Kosmos-3M | Strela-1M 9-16
Kosmos-3M | Strela-1M 9-16

Agency: N/A

Status: Launch Successful

Launch date: May 7, 1971, 2:20 p.m. UTC

Rocket: Kosmos-3M

Launch pad: 132/1 (132L)

Location: Plesetsk Cosmodrome, Russian Federation

...

Latest news about this satellite

There are no fresh news available about this satellite. Check back as we update our databases every day.


Newsletter sign-up

Weekly statistics, charts and insights to help you stay on top of the space industry.